Location: Norton
(51.3000°N, 0.8167°E)
Time: 03:01:19
(UTC+00:00)

Cosmos 2084 Rocket - Pass Details

Date: 03 March 2021
Orbit: 528 x 653 km, 62.8° (Epoch: 12 April)

Event Time Altitude Azimuth Distance (km) Brightness Sun altitude
Rises 18:22:01 0° 313° (NW) 2,789 7.7 -7.2°
Reaches altitude 10° 18:24:13 10° 313° (NW) 1,907 6.8 -7.5°
Maximum altitude 18:28:32 83° 226° (SW) 610 3.6 -8.2°
Drops below altitude 10° 18:33:01 10° 139° (SE) 1,975 5.8 -8.9°
Enters shadow 18:35:01 - 138° (SE) 2,774 6.5 -9.2°
